[[{"header":{"parameterUnit":"m.s-1","parameterCategory":1,"la1":30.2991,"la2":30.254,"lo1":-89.0895,"lo2":-89.0444,"dy":0.0017,"dx":0.0017,"nx":28,"ny":28,"refTime":"2025-06-20T09:00:00:Z","depth":0,"parameterNumber":2,"parameterNumberName":"U-component_of_WINDS"},"data":[0,0,0,0,0,0,0,0,0,0,0,0,0,0,0,0,0,0,0,0,0,0,0,0,0,0,0,0,0,0,0,0,0,0,0,0,0,0,0,0,0,0,0,0,0,0,0,0,0,0,0,0,0,0,0,0,0,0,2.8824,2.8825,0,2.889,2.889,2.8891,2.8843,2.8841,2.8839,2.8837,2.8903,2.8907,2.891,0,0,0,0,0,0,0,0,0,0,0,0,0,2.8655,2.8659,2.8824,2.8825,2.8826,2.8889,2.889,2.8891,2.8844,2.8841,2.8839,2.8836,2.8902,2.8906,2.8911,0,0,0,0,0,0,0,0,0,0,0,0,0,2.8725,2.866,2.8824,2.881,2.8809,2.8889,2.889,2.8891,2.8844,2.8841,2.8838,2.8835,2.89,2.8906,2.8911,2.9009,0,0,2.8928,2.8931,0,0,0,0,0,0,0,0,2.8722,2.8732,2.8811,2.8811,2.881,2.8855,2.8855,2.8931,2.8845,2.8831,2.8837,2.8833,2.889,2.8896,2.8915,2.9012,2.9015,2.8929,2.8932,2.8935,2.8936,0,0,0,0,0,0,0,2.8717,2.8729,2.885,2.8812,2.8812,2.8799,2.8806,2.8869,2.8877,2.8832,2.8828,2.8837,2.8889,2.891,2.8916,2.9016,2.8929,2.8934,2.8937,2.8939,2.9193,2.9196,0,0,0,0,0,0,2.8713,2.8725,2.8848,2.8852,2.8757,2.8805,2.8812,2.8844,2.8876,2.8878,2.884,2.8834,2.8902,2.891,2.8918,2.9032,2.8935,2.894,2.8943,2.919,2.9194,2.9198,0,0,0,0,0,0,2.871,2.8725,2.8845,2.8787,2.8802,2.8811,2.8847,2.8847,2.8868,2.8882,2.8883,2.886,2.89,2.8911,2.8986,2.9034,2.8942,2.8947,2.9186,2.9191,2.9196,2.9263,0,0,0,0,0,0,2.8705,2.8724,2.8762,2.8789,2.8805,2.8913,2.885,2.885,2.8877,2.8871,2.8901,2.8903,2.8898,2.8978,2.8992,2.904,2.8952,2.9181,2.9188,2.9194,2.9256,2.927,2.9281,0,0,0,0,0,2.87,2.8778,2.8764,2.8779,2.8853,2.8916,2.8925,2.8918,2.8882,2.8919,2.8928,2.8902,2.9027,2.8986,2.9001,2.9052,2.9178,2.9186,2.9194,2.9251,2.9267,2.9281,0,0,0,0,0,0,2.8756,2.8782,2.8766,2.8856,2.8884,2.8907,2.8954,2.8935,2.8974,2.8967,2.8956,2.8963,2.9042,2.9055,2.9009,2.9147,2.9097,2.9108,2.9135,2.9151,2.9163,2.9157,2.8956,0,0,0,0,0,2.878,2.8829,2.8848,2.8926,2.8941,2.8945,2.8972,2.8964,2.8993,2.9004,2.9019,2.9047,2.9092,2.9123,2.9165,2.9259,2.9263,2.9301,2.9313,2.9323,2.9332,2.938,2.9396,2.9223,2.9223,2.9223,0,0,2.8828,2.8847,2.8879,2.8938,2.8958,2.9009,2.8956,2.9012,2.9049,2.9013,2.9084,2.9096,2.9127,2.9211,2.9249,2.9224,2.9381,2.9333,2.9341,2.9344,2.9389,2.9406,2.942,2.9228,2.9227,2.9226,0,0,2.894,2.8961,2.9027,2.9049,2.9081,2.9083,2.9099,2.9126,2.9132,2.9204,2.9177,2.9221,2.93,2.9322,2.9344,2.9464,2.9441,2.9479,2.9542,2.9589,2.9602,2.9614,2.9655,2.9669,2.9488,2.9488,2.9488,0,2.8996,2.9071,2.9063,2.9121,2.9146,2.9116,2.9182,2.9203,2.9248,2.9266,2.9238,2.9335,2.9354,2.9441,2.947,2.949,2.9506,2.9474,2.9601,2.9613,2.9624,2.9662,2.9678,2.9492,2.9492,2.9491,2.9491,0,2.9136,2.9189,2.9238,2.9281,2.9313,2.9374,2.9374,2.9407,2.9396,2.9401,2.9474,2.9495,2.9541,2.9561,2.9552,2.9647,2.9631,2.9603,2.9552,2.9645,2.968,2.9695,2.9498,2.9497,2.9495,2.9494,0,0,2.9286,2.9324,2.9341,2.936,2.9393,2.9433,2.9492,2.9537,2.9564,2.9596,2.9644,2.9711,2.9684,2.9709,2.9702,2.9743,2.9834,2.9709,2.971,2.9729,2.9937,2.9957,2.9974,2.9819,2.9822,2.9824,2.9934,0,2.9399,2.9502,2.9496,2.9593,2.964,2.9612,2.9664,2.9689,2.9695,2.9736,2.9743,2.9789,2.9752,2.9766,2.9806,2.9814,2.9875,2.9807,2.9862,2.9864,2.9853,2.9993,3.0014,3.0117,2.9948,2.9951,2.9952,0,2.9544,2.9579,2.9681,2.9705,2.9725,2.9771,2.981,2.985,2.9878,2.9879,2.9906,2.9892,2.995,2.99,2.9979,2.9933,2.9955,2.9963,2.9966,2.9969,2.9912,2.9998,3.0149,3.0164,2.9975,2.9973,2.9971,0,2.9639,2.9714,2.9783,2.98,2.9831,2.9863,2.9878,2.9902,2.9929,2.9963,2.998,3.0021,3.0043,3.0074,3.0071,3.0035,3.0151,3.01,3.0152,3.0152,3.0176,3.0174,3.0331,3.0195,3.0194,3.0194,3.0194,0,2.9764,2.9827,2.9826,2.9869,2.9938,2.993,2.9998,3.0008,3.003,3.0073,3.0052,3.0093,3.0087,3.0128,3.0125,3.019,3.0201,3.0202,3.0201,3.0203,3.0202,3.0216,3.0208,3.0198,3.0197,3.0196,3.0196,0,2.9882,2.9885,2.9958,2.9981,2.9988,3.0037,3.0056,3.0096,3.01,3.0155,3.0168,3.0174,3.0221,3.0221,3.0275,3.0273,3.0351,3.0343,3.0342,3.0339,3.039,3.0384,3.0559,3.058,3.0432,3.0434,3.0435,0,2.996,3.0008,3.0035,3.0063,3.0079,3.0124,3.015,3.0144,3.0173,3.0207,3.0242,3.0287,3.0322,3.0398,3.0407,3.0447,3.0437,3.0496,3.0443,3.0443,3.0435,3.0431,3.0435,3.0506,3.0507,3.0509,3.051,0,3.0098,3.0097,3.0137,3.0176,3.0209,3.024,3.0268,3.0292,3.0289,3.0322,3.0369,3.0396,3.045,3.0494,3.0533,3.0546,3.0527,3.0526,3.054,3.0542,3.0538,3.0538,3.0367,3.0522,3.0521,3.052,3.0519,3.0519,3.0197,3.0237,3.0262,3.0306,3.0327,3.0354,3.0392,3.04,3.044,3.0483,3.0477,3.053,3.0554,3.0604,3.0621,3.0661,3.064,3.0661,3.0665,3.067,3.0674,3.0534,3.0668,3.0668,3.0668,3.0667,3.0667,0,3.0332,3.0346,3.0387,3.0427,3.0462,3.0441,3.0472,3.0501,3.0547,3.0572,3.0607,3.066,3.0703,3.0715,3.0755,3.0785,3.0777,3.0795,3.0792,3.0795,3.0692,3.0674,3.0801,3.0801,3.0801,3.0801,3.0801,3.0801,3.0406,3.0471,3.0473,3.0548,3.0562,3.0612,3.0631,3.0655,3.0674,3.0735,3.077,3.0778,3.0797,3.0838,3.0875,3.0878,3.0893,3.0914,3.0913,3.0816,3.0802,3.0789,3.0773,3.0918,3.0918,3.1012,3.1013,3.1014]},{"header":{"parameterUnit":"m.s-1","parameterCategory":1,"la1":30.2991,"la2":30.254,"lo1":-89.0895,"lo2":-89.0444,"dy":0.0017,"dx":0.0017,"nx":28,"ny":28,"refTime":"2025-06-20T09:00:00:Z","depth":0,"parameterNumber":3,"parameterNumberName":"V-component_of_WINDS"},"data":[0,0,0,0,0,0,0,0,0,0,0,0,0,0,0,0,0,0,0,0,0,0,0,0,0,0,0,0,0,0,0,0,0,0,0,0,0,0,0,0,0,0,0,0,0,0,0,0,0,0,0,0,0,0,0,0,0,0,0.7885,0.7885,0,0.7901,0.7902,0.7902,0.7889,0.7888,0.7887,0.7887,0.7905,0.7906,0.7907,0,0,0,0,0,0,0,0,0,0,0,0,0,0.7842,0.7843,0.7885,0.7885,0.7886,0.7901,0.7902,0.7902,0.7889,0.7888,0.7887,0.7887,0.7905,0.7906,0.7907,0,0,0,0,0,0,0,0,0,0,0,0,0,0.786,0.7843,0.7885,0.7881,0.7881,0.7901,0.7902,0.7902,0.7889,0.7888,0.7887,0.7886,0.7904,0.7906,0.7907,0.7933,0,0,0.7912,0.7912,0,0,0,0,0,0,0,0,0.7859,0.7861,0.7881,0.7881,0.7881,0.7892,0.7893,0.7913,0.7889,0.7886,0.7887,0.7886,0.7901,0.7903,0.7908,0.7934,0.7935,0.7912,0.7913,0.7913,0.7914,0,0,0,0,0,0,0,0.7858,0.7861,0.7892,0.7882,0.7881,0.7878,0.788,0.7897,0.7898,0.7886,0.7885,0.7887,0.7901,0.7907,0.7908,0.7935,0.7912,0.7913,0.7914,0.7915,0.7981,0.7982,0,0,0,0,0,0,0.7857,0.786,0.7891,0.7892,0.7867,0.7879,0.7881,0.7889,0.7898,0.7898,0.7888,0.7886,0.7904,0.7907,0.7909,0.7939,0.7913,0.7915,0.7916,0.7981,0.7982,0.7983,0,0,0,0,0,0,0.7856,0.786,0.789,0.7876,0.7879,0.7881,0.789,0.789,0.7896,0.7899,0.79,0.7893,0.7904,0.7907,0.7927,0.7939,0.7915,0.7917,0.798,0.7981,0.7982,0.8,0,0,0,0,0,0,0.7855,0.7859,0.787,0.7876,0.788,0.7908,0.7891,0.7891,0.7898,0.7896,0.7904,0.7905,0.7903,0.7925,0.7928,0.7941,0.7918,0.7978,0.798,0.7982,0.7998,0.8002,0.8005,0,0,0,0,0,0.7853,0.7875,0.787,0.7874,0.7893,0.7909,0.7912,0.7909,0.7899,0.7909,0.7911,0.7905,0.7937,0.7927,0.7931,0.7944,0.7978,0.798,0.7982,0.7997,0.8001,0.8005,0,0,0,0,0,0,0.7871,0.7876,0.7871,0.7895,0.7902,0.7907,0.792,0.7914,0.7924,0.7922,0.7919,0.7921,0.7941,0.7945,0.7933,0.7969,0.7956,0.7959,0.7966,0.797,0.7973,0.7972,0.7919,0,0,0,0,0,0.7878,0.7891,0.7894,0.7915,0.7918,0.7918,0.7925,0.7923,0.793,0.7932,0.7936,0.7943,0.7955,0.7963,0.7974,0.7998,0.7999,0.8009,0.8013,0.8015,0.8018,0.8029,0.8034,0.7989,0.7989,0.7989,0,0,0.7892,0.7896,0.7905,0.7919,0.7923,0.7936,0.7921,0.7936,0.7945,0.7935,0.7954,0.7956,0.7964,0.7986,0.7996,0.7989,0.803,0.8018,0.802,0.8021,0.8032,0.8036,0.804,0.799,0.799,0.799,0,0,0.7925,0.7929,0.7947,0.7951,0.7958,0.7957,0.7961,0.7967,0.7968,0.7986,0.7978,0.7989,0.801,0.8015,0.802,0.8052,0.8046,0.8055,0.8072,0.8084,0.8087,0.809,0.8101,0.8105,0.8058,0.8058,0.8058,0,0.7942,0.7961,0.7956,0.7971,0.7977,0.7967,0.7984,0.7988,0.7999,0.8003,0.7995,0.8019,0.8024,0.8046,0.8054,0.8059,0.8062,0.8055,0.8087,0.809,0.8093,0.8103,0.8107,0.8059,0.8059,0.8059,0.8059,0,0.7981,0.7994,0.8007,0.8016,0.8023,0.8039,0.8036,0.8044,0.804,0.804,0.8058,0.8063,0.8074,0.8078,0.8076,0.81,0.8095,0.8088,0.8074,0.8098,0.8107,0.8111,0.8061,0.806,0.806,0.806,0,0,0.8027,0.8031,0.8036,0.8039,0.8045,0.8055,0.8069,0.8079,0.8085,0.8092,0.8104,0.812,0.8112,0.8118,0.8115,0.8125,0.8148,0.8116,0.8116,0.8121,0.8174,0.818,0.8184,0.8144,0.8144,0.8145,0.8173,0,0.8059,0.8084,0.8079,0.8104,0.8115,0.8104,0.8117,0.8121,0.8121,0.813,0.813,0.8141,0.813,0.8133,0.8143,0.8143,0.8159,0.8141,0.8154,0.8155,0.8153,0.8189,0.8196,0.8222,0.8176,0.8177,0.8178,0,0.8101,0.8107,0.8132,0.8134,0.8138,0.815,0.8157,0.8166,0.8171,0.817,0.8175,0.8169,0.8183,0.8169,0.8187,0.8175,0.818,0.8181,0.8182,0.8183,0.8168,0.8191,0.823,0.8234,0.8183,0.8183,0.8182,0,0.8131,0.8146,0.8162,0.8165,0.8168,0.8176,0.8178,0.8181,0.8186,0.8193,0.8196,0.8204,0.8209,0.8215,0.8212,0.8202,0.823,0.8216,0.8229,0.8229,0.8236,0.8236,0.8276,0.8239,0.8239,0.8239,0.8239,0,0.8167,0.8182,0.8176,0.8186,0.8202,0.8196,0.8213,0.8213,0.8216,0.8225,0.8217,0.8226,0.8221,0.8229,0.8226,0.8241,0.8244,0.8243,0.8242,0.8243,0.8243,0.8247,0.8245,0.824,0.824,0.824,0.824,0,0.8204,0.82,0.8217,0.8217,0.8218,0.823,0.823,0.8239,0.8237,0.8249,0.8252,0.8249,0.8258,0.8255,0.8266,0.8264,0.8282,0.8279,0.8281,0.828,0.8293,0.8291,0.8337,0.8342,0.8302,0.8302,0.8303,0,0.8227,0.8239,0.8239,0.8245,0.8246,0.8256,0.826,0.8254,0.826,0.8264,0.8272,0.828,0.8287,0.8302,0.8301,0.8308,0.8305,0.8321,0.8306,0.8307,0.8305,0.8304,0.8304,0.8324,0.8324,0.8324,0.8325,0,0.8269,0.8266,0.8273,0.8279,0.8285,0.8289,0.8293,0.8298,0.8292,0.8298,0.8307,0.8312,0.8321,0.8329,0.8335,0.8337,0.833,0.8329,0.8332,0.8334,0.8334,0.8333,0.8288,0.8328,0.8328,0.8328,0.8327,0.8327,0.8299,0.8308,0.8309,0.8317,0.8319,0.8322,0.833,0.8328,0.8335,0.8342,0.8338,0.8348,0.835,0.8357,0.8359,0.8367,0.8361,0.8366,0.8367,0.8368,0.8369,0.8333,0.8368,0.8368,0.8368,0.8367,0.8367,0,0.834,0.834,0.8347,0.8351,0.8357,0.8348,0.8352,0.8357,0.8366,0.8368,0.8374,0.8383,0.839,0.8389,0.8395,0.8401,0.8398,0.8403,0.8402,0.8402,0.8375,0.8371,0.8405,0.8405,0.8405,0.8405,0.8405,0.8405,0.8362,0.8376,0.8372,0.8386,0.8386,0.8395,0.8397,0.84,0.8401,0.8412,0.8417,0.8416,0.8416,0.8422,0.8428,0.8427,0.843,0.8436,0.8434,0.8408,0.8405,0.8401,0.8397,0.8436,0.8436,0.8461,0.8461,0.8461]}]]